GW4821 Weather Reports


Display with metric or nautical units.
time (UTC)temp
F
wind
direction
speed
MPH
gust
MPH
rain 1hr
in
rain 24hr
in
rain mn
in
humidity
%
barometer
mb
20260502163008 84 44 5.0 13.0 0.00 0.00 0.00 28 1014.1
20260502161506 84 68 4.0 12.0 0.00 0.00 0.00 28 1014.1
20260502151508 83 102 2.0 9.0 0.00 0.00 0.00 28 1013.7
20260502123014 72 34 0.0 4.0 0.00 0.00 0.00 31 1011.9
20260502121514 73 36 0.0 4.0 0.00 0.00 0.00 28 1011.7
20260502114518 73 86 0.0 4.0 0.00 0.00 0.00 28 1011.7
20260502113016 74 92 1.0 4.0 0.00 0.00 0.00 27 1011.4
20260502111518 73 38 1.0 5.0 0.00 0.00 0.00 28 1011.3
20260502110018 71 59 0.0 4.0 0.00 0.00 0.00 33 1011.3
20260502104516 71 28 0.0 0.0 0.00 0.00 0.00 29 1011.5
20260502103039 71 28 0.0 0.0 0.00 0.00 0.00 30 1011.3
20260502101521 71 28 0.0 0.0 0.00 0.00 0.00 30 1011.2
20260502091520 75 360 1.0 4.0 0.00 0.00 0.00 25 1010.9
20260502071519 75 128 0.0 3.0 0.00 0.00 0.00 21 1010.5
20260502070007 76 125 0.0 4.0 0.00 0.00 0.00 21 1010.3
20260502064525 76 133 0.0 3.0 0.00 0.00 0.00 20 1010.2
20260502063011 76 133 0.0 3.0 0.00 0.00 0.00 21 1010.3
20260502061513 77 134 0.0 5.0 0.00 0.00 0.00 20 1010.3
20260502060018 77 136 1.0 4.0 0.00 0.00 0.00 20 1010.1
20260502054505 77 143 0.0 4.0 0.00 0.00 0.00 20 1010.2
20260502053003 77 128 1.0 4.0 0.00 0.00 0.00 20 1010.1
20260502051507 78 121 2.0 4.0 0.00 0.00 0.00 19 1010.0
20260502050014 80 140 0.0 4.0 0.00 0.00 0.00 18 1009.9
20260502044521 81 163 1.0 5.0 0.00 0.00 0.00 17 1009.8
20260502043003 81 125 1.0 6.0 0.00 0.00 0.00 17 1009.7
20260502041508 80 144 0.0 4.0 0.00 0.00 0.00 17 1009.5
20260502040014 80 140 0.0 5.0 0.00 0.00 0.00 17 1009.3
20260502034518 82 131 0.0 3.0 0.00 0.00 0.00 17 1009.2
20260502033028 85 167 0.0 4.0 0.00 0.00 0.00 15 1009.0
20260502031504 86 222 1.0 4.0 0.00 0.00 0.00 15 1008.8
20260502030008 86 222 0.0 3.0 0.00 0.00 0.00 15 1008.6
20260502024516 86 241 0.0 4.0 0.00 0.00 0.00 14 1008.5
20260502023021 87 261 0.0 3.0 0.00 0.00 0.00 14 1008.4
20260502021524 88 269 0.0 2.0 0.00 0.00 0.00 14 1008.2
20260502020006 89 269 0.0 3.0 0.00 0.00 0.00 13 1008.4
20260502014525 91 269 0.0 3.0 0.00 0.00 0.00 13 1008.3
20260502013015 91 260 0.0 3.0 0.00 0.00 0.00 12 1008.3
20260502011520 91 219 1.0 5.0 0.00 0.00 0.00 13 1008.3
20260502010026 93 244 1.0 4.0 0.00 0.00 0.00 14 1008.3
20260502004508 93 277 1.0 5.0 0.00 0.00 0.00 14 1008.3
20260502003015 94 219 2.0 5.0 0.00 0.00 0.00 14 1008.4
20260502001519 93 232 0.0 6.0 0.00 0.00 0.00 15 1008.5
20260502000022 93 248 2.0 6.0 0.00 0.00 0.00 15 1008.5
20260501234528 93 279 2.0 7.0 0.00 0.00 0.00 15 1008.5
20260501233011 92 238 1.0 4.0 0.00 0.00 0.00 16 1008.4
20260501231504 91 266 2.0 6.0 0.00 0.00 0.00 16 1008.6
20260501230004 92 252 1.0 7.0 0.00 0.00 0.00 17 1008.8
20260501224503 92 264 2.0 8.0 0.00 0.00 0.00 17 1008.8
20260501223030 90 279 2.0 11.0 0.00 0.00 0.00 20 1009.1
20260501221515 91 279 2.0 7.0 0.00 0.00 0.00 19 1009.3
20260501220004 90 286 2.0 10.0 0.00 0.00 0.00 22 1009.5
20260501214510 89 350 1.0 11.0 0.00 0.00 0.00 24 1009.8
20260501213004 89 337 3.0 10.0 0.00 0.00 0.00 24 1010.0
20260501211513 90 299 0.0 6.0 0.00 0.00 0.00 23 1010.1
20260501210018 90 226 2.0 9.0 0.00 0.00 0.00 20 1010.4
20260501204506 89 236 2.0 7.0 0.00 0.00 0.00 21 1010.6
20260501203009 88 128 0.0 5.0 0.00 0.00 0.00 22 1010.7
20260501201509 88 280 3.0 8.0 0.00 0.00 0.00 23 1010.8
20260501200011 88 236 1.0 8.0 0.00 0.00 0.00 23 1011.0
20260501194526 87 97 2.0 8.0 0.00 0.00 0.00 24 1011.1
20260501193005 87 192 2.0 7.0 0.00 0.00 0.00 23 1011.4
20260501191508 86 74 0.0 6.0 0.00 0.00 0.00 26 1011.6
20260501190011 86 142 1.0 6.0 0.00 0.00 0.00 25 1011.8
20260501184528 86 100 2.0 7.0 0.00 0.00 0.00 25 1012.0
20260501183023 85 88 2.0 6.0 0.00 0.00 0.00 26 1012.3
20260501181506 84 209 1.0 6.0 0.00 0.00 0.00 28 1012.5
20260501180010 83 273 2.0 6.0 0.00 0.00 0.00 28 1012.8
20260501174511 83 232 1.0 8.0 0.00 0.00 0.00 28 1012.8
20260501173017 82 268 0.0 6.0 0.00 0.00 0.00 30 1012.8